This is the latest recevied weather packets stored in our database for station/object N5YHM-13. If no packets are shown the sender has not sent any weather packets the latest 10 day(s).
| Time | Temp. | Humidity | Pressure | Rain* | Wind** | Luminosity | Snow |
|---|---|---|---|---|---|---|---|
| 1778092146 | 27.78° C | 89% | 1015.2 hPa | 0 mm | - | 30 W/m² | - |
| 1778091843 | 27.22° C | 91% | 1015.4 hPa | 0 mm | - | 169 W/m² | - |
| 1778091540 | 26.67° C | 92% | 1015.6 hPa | 0 mm | - | 43 W/m² | - |
| 1778091238 | 27.22° C | 91% | 1015.7 hPa | 0 mm | - | 15 W/m² | - |
| 1778090935 | 27.22° C | 90% | 1015.8 hPa | 0 mm | - | 12 W/m² | - |
| 1778090631 | 27.22° C | 89% | 1015.6 hPa | 0 mm | - | 11 W/m² | - |
| 1778090328 | 27.22° C | 89% | 1015.8 hPa | 0 mm | - | 19 W/m² | - |
| 1778090024 | 27.22° C | 90% | 1015.8 hPa | 0 mm | - | 22 W/m² | - |
| 1778089722 | 27.22° C | 89% | 1015.9 hPa | 0 mm | - | 23 W/m² | - |
| 1778089419 | 27.22° C | 90% | 1015.9 hPa | 0 mm | - | 23 W/m² | - |
| 1778089117 | 27.22° C | 91% | 1015.8 hPa | 0 mm | - | 26 W/m² | - |
| 1778088813 | 26.67° C | 90% | 1016 hPa | 0 mm | - | 18 W/m² | - |
| 1778088511 | 26.67° C | 90% | 1015.8 hPa | 0 mm | - | 15 W/m² | - |
| 1778088207 | 27.22° C | 89% | 1015.9 hPa | 0 mm | - | 19 W/m² | - |
| 1778087904 | 27.22° C | 89% | 1016.2 hPa | 0 mm | - | 13 W/m² | - |
| 1778087602 | 27.22° C | 89% | 1016 hPa | 0 mm | - | 13 W/m² | - |
| 1778087300 | 27.22° C | 89% | 1016.1 hPa | 0 mm | - | 19 W/m² | - |
| 1778086994 | 27.22° C | 90% | 1016.2 hPa | 0 mm | - | 21 W/m² | - |
| 1778086694 | 27.22° C | 89% | 1016.3 hPa | 0 mm | - | 18 W/m² | - |
| 1778086391 | 26.67° C | 90% | 1016.2 hPa | 0 mm | - | 25 W/m² | - |
| 1778086087 | 27.22° C | 90% | 1016 hPa | 0 mm | - | 20 W/m² | - |
| 1778085784 | 26.67° C | 91% | 1016.2 hPa | 0 mm | - | 20 W/m² | - |
| 1778085481 | 26.67° C | 90% | 1016.2 hPa | 0 mm | - | 20 W/m² | - |
| 1778085176 | 26.67° C | 91% | 1016.1 hPa | 0 mm | - | 19 W/m² | - |
| 1778084872 | 26.67° C | 91% | 1015.8 hPa | 0 mm | - | 20 W/m² | - |
* Rain latest hour (hover to see other rain measurements)
** Current wind speed in m/s (hover to see current wind gust speed)